Weather History for Chino, CA

Change the Weather History Date:

Saturday, April 12, 2014

  Actual Average Record
Temperature  
Mean Temperature 60 °F -  
Max Temperature 71 °F 70 °F 91 °F (2008)
Min Temperature 51 °F 42 °F 42 °F (2006)
Degree Days  
Heating Degree Days 4    
Growing Degree Days 10 (Base 50)    
Moisture  
Dew Point 49 °F    
Average Humidity 73    
Maximum Humidity 93    
Minimum Humidity 46    
Precipitation  
Precipitation 0.00 in - - ()
Sea Level Pressure  
Sea Level Pressure 29.92 in    
Wind  
Wind Speed 7 mph (WSW)    
Max Wind Speed 20 mph    
Max Gust Speed 24 mph    
Visibility 7 miles    
Events      
Averages and records for this station are not official NWS values.
T = Trace of Precipitation, MM = Missing Value Source: NWS Daily Summary

Daily Weather History Graph

Daily Weather History Graph

Search for Another Location

Airport:

Trip Planner

Search our weather history database for the weather conditions in past years. The results will help you decide how hot, cold, wet, or windy it might be!

Date:

Astronomy

Apr. 12, 2014 Rise Set
Actual Time 6:23 AM PDT 7:19 PM PDT
Civil Twilight 5:57 AM PDT 7:45 PM PDT
Nautical Twilight 5:27 AM PDT 8:15 PM PDT
Astronomical Twilight 4:56 AM PDT 8:46 PM PDT
Moon 5:08 PM PDT (4/12) 4:45 AM PDT (4/12)
Length of Visible Light 13h 47m
Length of Day
12h 56m
Waxing Gibbous, 93% of the Moon is Illuminated
Apr 12
Waxing Gibbous
Apr 15
Full
Apr 22
Last Quarter
Apr 28
New
May 6
First Quarter

Hourly Weather History & Observations

Time (PDT) Temp. Dew Point Humidity Pressure Visibility Wind Dir Wind Speed Gust Speed Precip Events Conditions
12:53 AM 53.1 °F 51.1 °F 93% 29.93 in 4.0 mi West 8.1 mph - N/A   Clear
1:53 AM 53.1 °F 50.0 °F 89% 29.91 in 5.0 mi West 6.9 mph - N/A   Partly Cloudy
2:53 AM 53.1 °F 50.0 °F 89% 29.91 in 6.0 mi West 9.2 mph - N/A   Clear
3:53 AM 52.0 °F 48.9 °F 89% 29.90 in 6.0 mi West 4.6 mph - N/A   Clear
4:53 AM 51.1 °F 48.0 °F 89% 29.89 in 6.0 mi Calm Calm - N/A   Clear
5:38 AM 51.8 °F 48.2 °F 88% 29.90 in 6.0 mi Calm Calm - N/A   Mostly Cloudy
5:53 AM 51.1 °F 48.9 °F 92% 29.89 in 5.0 mi Calm Calm - N/A   Overcast
6:53 AM 54.0 °F 50.0 °F 86% 29.91 in 6.0 mi Calm Calm - N/A   Overcast
7:53 AM 55.0 °F 50.0 °F 83% 29.94 in 6.0 mi SSW 3.5 mph - N/A   Haze
8:53 AM 57.9 °F 48.9 °F 72% 29.94 in 6.0 mi Calm Calm - N/A   Haze
9:53 AM 60.1 °F 48.9 °F 67% 29.94 in 6.0 mi Calm Calm - N/A   Haze
10:53 AM 62.1 °F 48.0 °F 60% 29.94 in 6.0 mi SSW 4.6 mph - N/A   Haze
11:53 AM 66.0 °F 48.0 °F 52% 29.93 in 7.0 mi Variable 3.5 mph - N/A   Scattered Clouds
12:53 PM 69.1 °F 48.0 °F 47% 29.91 in 10.0 mi WNW 8.1 mph - N/A   Scattered Clouds
1:53 PM 70.0 °F 48.0 °F 46% 29.90 in 10.0 mi WSW 11.5 mph 18.4 mph N/A   Scattered Clouds
2:53 PM 70.0 °F 48.9 °F 47% 29.89 in 10.0 mi SW 13.8 mph - N/A   Mostly Cloudy
3:53 PM 68.0 °F 50.0 °F 52% 29.88 in 10.0 mi WSW 19.6 mph - N/A   Scattered Clouds
4:53 PM 66.0 °F 50.0 °F 56% 29.88 in 10.0 mi SW 17.3 mph 24.2 mph N/A   Scattered Clouds
5:53 PM 63.0 °F 48.9 °F 60% 29.88 in 6.0 mi WSW 17.3 mph - N/A   Haze
6:53 PM 60.1 °F 48.9 °F 67% 29.90 in 7.0 mi WSW 13.8 mph - N/A   Partly Cloudy
7:53 PM 57.0 °F 48.9 °F 74% 29.92 in 6.0 mi West 8.1 mph - N/A   Haze
8:53 PM 55.0 °F 48.0 °F 77% 29.95 in 8.0 mi West 10.4 mph - N/A   Haze
9:53 PM 54.0 °F 48.0 °F 80% 29.96 in 8.0 mi West 9.2 mph - N/A   Haze
10:39 PM 53.6 °F 48.2 °F 82% 29.97 in 8.0 mi WSW 8.1 mph - N/A   Haze
10:53 PM 55.0 °F 48.0 °F 77% 29.97 in 8.0 mi WSW 10.4 mph - N/A   Haze
11:53 PM 55.9 °F 48.0 °F 75% 29.98 in 8.0 mi West 6.9 mph - N/A   Haze